Other Surface Observations
Issued by NWS Tucson, AZ

Home | Current Version | Previous Version | Text Only | Print | Product List | Glossary On
Versions: 1 2 3 4 5 6 7 8 9 10 11 12 13 14 15 16 17 18 19 20 21 22 23 24 25 26 27 28 29 30 31 32 33 34 35 36 37 38 39 40 41 42 43 44 45 46 47 48 49 50
000
SXUS55 KTWC 210015
OSOTWC

WEATHER ROUNDUP FOR SOUTHEAST ARIZONA
NATIONAL WEATHER SERVICE TUCSON AZ
515 PM MST FRI APR 20 2018

AZZ504>506-514-210115-
LOCATION       SKY/WX    TMP DP  RH WIND       PRES   REMARKS
TUCSON         SUNNY     72  21  14 W8G25     30.02S
DAVIS-MONTHAN  SUNNY     74  23  15 NW9G18    30.00S
CHILDRENS PARK N/A      N/A N/A  13 NW6               PIMA CO DEQ
ALVERNON/22ND  N/A       72 N/A N/A NW6               PIMA CO DEQ
CHERRY/GLENN   N/A      N/A N/A N/A N/A               PIMA CO DEQ
TANGERINE      N/A       73 N/A N/A W6                PIMA CO DEQ
CONTL RANCH    N/A       74  20  13 NW6               PIMA CO DEQ
GRANT/1ST      N/A       72  18  13 SW6               PIMA CO DEQ
CRAYCROFT/22ND N/A       73  19  13 NW10              PIMA CO DEQ
GOLFLINKS/KOLB N/A      N/A N/A N/A N/A               PIMA CO DEQ
AJO/12TH       N/A       73  19  13 W8                PIMA CO DEQ
FAIRGROUNDS    N/A       70 N/A N/A NW12              PIMA CO DEQ
SAGUARO        N/A       73  21  14 W9G18             *SABINO CYN
SAN CARLOS     N/A       70  23  17 SW10G19           *SAN CARLOS
GREEN VALLEY   N/A       73  19  13 NW7               PIMA CO DEQ
HORSE CAMP CYN N/A       64  23  21 W15G28            *ARAVAIPA CYN
RINCON MTNS    NOT AVBL
$$

AZZ509>511-210115-
LOCATION       SKY/WX    TMP DP  RH WIND       PRES   REMARKS
SAFFORD        SUNNY     70  19  14 NW22G31   29.95S
STRAY HORSE    N/A       46  14  28 W13G24            *
TRAIL CABIN    NOT AVBL
BLACK HILLS    NOT AVBL
DRY LAKE       N/A       51  18  27 SW7G16            *NATANES MTNS
NOON CREEK     NOT AVBL
COLUMBINE      N/A       40  13  33 SW9G21            *PINALENO MTNS
GUTHRIE        N/A       56  15  20 W16G32            *SW OF GUTHRIE
$$

AZZ502-503-513-210115-
LOCATION       SKY/WX    TMP DP  RH WIND       PRES   REMARKS
NOGALES        SUNNY     71  12  10 W13G21    30.03R
SELLS          N/A       75  21  13 NE7G14            *
SASABE         N/A       73  19  13 W9G16             *ALTAR VLY
HOPKINS        N/A       61  14  16 W10G22            *SANTA RITA MTNS
CARR CYN       N/A       67   6   9 N5G16             *W OF HEREFORD
$$

AZZ507-508-512-210115-
LOCATION       SKY/WX    TMP DP  RH WIND       PRES   REMARKS
SIERRA VISTA   SUNNY     67  11  11 NW20      30.06
DOUGLAS        SUNNY     71  11  10 NW21      29.99R
EMPIRE MTNS    NOT AVBL
MULESHOE RANCH N/A       66  18  16 NW12G21           *PRESERVE
HEADQUARTERS   NOT AVBL
$$

.............................NOTES.............................
THIS IS AN AUTOMATED COLLECTIVE WITH MINIMAL QUALITY CONTROL.
PIMA CO DEQ SITES HAVE NONSTANDARD WIND SENSOR HEIGHTS.
PIMA CO DEQ SITES DO NOT REPORT WIND GUSTS.
* INDICATES WIND SENSORS LOCATED AT 20 FEET INSTEAD OF 33 FEET.
..............................KEY..............................
SKY/WX - SKY CONDITION/WEATHER
TMP    - TEMPERATURE IN FAHRENHEIT
DP     - DEWPOINT IN FAHRENHEIT
RH     - RELATIVE HUMIDITY IN PERCENT
WIND   - DIRECTION AND SPEED IN MILES PER HOUR (MPH)
VRB    - VARIABLE WIND DIRECTION
PRES   - MEAN SEA LEVEL PRESSURE IN INCHES OF MERCURY
         F - FALLING PRESSURE   R - RISING PRESSURE
         S - STEADY PRESSURE
VSB    - VISIBILITY IN MILES
HX     - HEAT INDEX IN FAHRENHEIT
WCI    - WIND CHILL INDEX IN FAHRENHEIT
N/A    - NOT AVAILABLE
AFB    - AIR FORCE BASE
         DAVIS-MONTHAN IS DAVIS-MONTHAN AIR FORCE BASE
CYN    - CANYON
MTNS   - MOUNTAINS
NCA    - NATIONAL CONSERVATION AREA
NR     - NEAR
VLY    - VALLEY
CONTL  - CONTINENTAL
PIMA CO DEQ - PIMA COUNTY DEPT OF ENVIRONMENTAL QUALITY



USA.gov is the U.S. government's official web portal to all federal, state and local government web resources and services.